Regional Weather Roundup
Issued by NWS

Home | Current Version | Previous Version | Text Only | Print | Product List | Glossary Off
Versions: 1 2 3 4 5 6 7 8 9 10 11 12 13 14 15 16 17 18 19 20 21 22 23 24 25 26 27 28 29 30 31 32 33 34 35 36 37 38 39 40 41 42 43 44 45 46 47 48 49 50

000
ASUS43 KMKX 262321
RWRWI

WISCONSIN REGIONAL WEATHER ROUNDUP
NATIONAL WEATHER SERVICE MILWAUKEE/SULLIVAN WI
600 PM CDT MON JUN 26 2017

NOTE: "FAIR" INDICATES FEW OR NO CLOUDS BELOW 12,000 FEET WITH NO
SIGNIFICANT WEATHER AND/OR OBSTRUCTIONS TO VISIBILITY.

WIZ001-002-006>008-014>016-023>028-270000-
NORTHWEST WISCONSIN

CITY           SKY/WX    TMP DP  RH WIND       PRES   REMARKS
SUPERIOR ARPT  NOT AVBL
ASHLAND        PTSUNNY   63  50  62 NW8       30.06F
HAYWARD        PTSUNNY   63  48  58 MISG      30.08F
SIREN          SUNNY     68  44  41 W10G16    30.08F
CUMBERLAND     PTSUNNY   63  45  51 W10       30.10F
RICE LAKE      PTSUNNY   65  46  50 W6        30.11F
CHETEK         MOSUNNY   65  47  50 N6        30.10S
LADYSMITH      MOSUNNY   59  48  66 NW9       30.12R
EAU CLAIRE     MOSUNNY   64  49  57 NW9       30.09F
MENOMONIE      MOSUNNY   65  45  49 W9        30.11S
NEW RICHMOND   PTSUNNY   63  45  51 N5G17     30.12S
OSCEOLA        PTSUNNY   64  46  51 CALM      30.14F
$$

WIZ003>005-009-010-017-018-270000-
NORTH CENTRAL WISCONSIN

CITY           SKY/WX    TMP DP  RH WIND       PRES   REMARKS
MANITOWISH WTR MOSUNNY   60  43  52 NW5       30.04S
ARBOR VITAE    SUNNY     64  43  47 N12       30.03F
WOODRUFF       SUNNY     64  43  47 N12       30.03F
RHINELANDER    MOSUNNY   64  41  42 NW10G17   30.05S
EAGLE RIVER    SUNNY     62  38  41 N8        30.03S
LAND O LAKES   SUNNY     63  39  40 N8        30.05S
PHILLIPS       MOSUNNY   59  50  74 SW6       30.06S
TOMAHAWK       NOT AVBL
MEDFORD        CLOUDY    57  47  68 NW10G17   30.08R
MERRILL        MOSUNNY   64  45  48 NW3       30.05F
$$

WIZ029-030-035-036-043>047-270000-
CENTRAL WISCONSIN

CITY           SKY/WX    TMP DP  RH WIND       PRES   REMARKS
WAUSAU         SUNNY     64  43  46 N9        30.04F
MOSINEE        MOSUNNY   63  45  51 NW8       30.07F
MARSHFIELD     MOSUNNY   65  45  48 N8        30.06S
STEVENS POINT  MOSUNNY   62  42  48 NW9       30.06S
WAUPACA        SUNNY     66  42  41 N13       30.05S
WAUTOMA        PTSUNNY   65  44  46 NW12G18   30.06S
WISC RAPIDS    SUNNY     66  46  48 N8        30.07F
CAMP DOUGLAS   PTSUNNY   66  46  48 N7        30.06F
$$

WIZ011>013-019>022-031-037>040-048>050-270000-
NORTHEAST WISCONSIN

CITY           SKY/WX    TMP DP  RH WIND       PRES   REMARKS
ANTIGO         SUNNY     60  46  58 N9        30.05S
SHAWANO        CLOUDY    65  49  56 N9        30.04S
OCONTO         PTSUNNY   58  54  85 NW3       30.02S
STURGEON BAY     N/A     57  53  86 N10         N/A
GREEN BAY      LGT RAIN  58  55  90 N14       30.04R
MANITOWOC      CLOUDY    58  51  78 NW12      30.01S
APPLETON       PTSUNNY   57  48  72 NW10G17   30.03S
CLINTONVILLE   CLOUDY    61  41  48 N12       30.04S
OSHKOSH        CLOUDY    59  50  72 N13       30.04R
$$

WIZ032>034-041-042-053>061-270000-
SOUTHWEST WISCONSIN

CITY           SKY/WX    TMP DP  RH WIND       PRES   REMARKS
LA CROSSE      SUNNY     74  45  35 NW8       30.07F
SPARTA         MOSUNNY   68  43  40 W12       30.08S
VIROQUA        SUNNY     65  45  48 NW14      30.09S
BOSCOBEL       MOSUNNY   70  43  37 NW9G20    30.08F
PRAIRIE DU CHI SUNNY     69  39  33 NW10      30.08F
PLATTEVILLE    MOSUNNY   68  42  39 NW14G20   30.08S
$$

WIZ056-057-062-063-064-067-068-270000-
SOUTH CENTRAL WISCONSIN

CITY           SKY/WX    TMP DP  RH WIND       PRES   REMARKS
REEDSBURG      MOSUNNY   64  46  52 N14       30.07F
BARABOO/DELLS  MOSUNNY   64  41  43 NW12G17   30.07F
LONE ROCK      PTSUNNY   67  44  43 NW10      30.07F
MINERAL POINT  MOSUNNY   66  43  42 N12       30.08S
MADISON        PTSUNNY   63  44  50 NW16G24   30.06F
MIDDLETON      PTSUNNY   65  45  47 N15       30.07F
WATERTOWN      NOT AVBL
MONROE         SUNNY     64  41  42 N14G22    30.07S
JANESVILLE     MOSUNNY   66  43  42 NW15G24   30.05F
$$

WIZ051-052-058>065-066-070>072-270000-
SOUTHEAST WISCONSIN

CITY           SKY/WX    TMP DP  RH WIND       PRES   REMARKS
MILWAUKEE      MOSUNNY   67  44  43 NW14G21   30.03S
WAUKESHA       PTSUNNY   61  43  51 NW18      30.05S
MILWAUKEE/TIMM MOSUNNY   63  41  45 NW15      30.04S
RACINE         PTSUNNY   65  44  46 NW15G22   30.04F
KENOSHA        MOSUNNY   64  45  49 NW15G24   30.04F
FOND DU LAC    LGT RAIN  59  50  72 N10       30.05R
SHEBOYGAN      RAIN      56  52  86 N12       30.02S FOG
WEST BEND      MOSUNNY   61  45  55 NW16G22   30.03S
JUNEAU         MOSUNNY   61  45  55 NW7G17    30.06S
$$

LSZ147-162-270000-
LAKE SUPERIOR

STATION/POSITION TIME  TEMP    WIND        PRES    WAVE
                       AIR SEA DIR/SP/G            HT/PER
                 (UTC) (F)     (DEG/KT/KT) (MB)    (FT/S)
W MID LAKE BUOY  2250   49 39  300/  8/ 10 1017.5R   1/ 3
DEVILS ISLAND    2300   56     230/ 12/ 14 1016.8F
PORT WING        2035   65     150/  2     1017.9
SAXON HARBOR     2240   63     300/ 12/ 14 1016.9F
$$

LMZ867-665-643>646-270000-
LAKE MICHIGAN

STATION/POSITION TIME  TEMP    WIND        PRES    WAVE
                       AIR SEA DIR/SP/G            HT/PER
                 (UTC) (F)     (DEG/KT/KT) (MB)    (FT/S)
CHAMBERS ISLAND  2240   60     340/  9/ 10 1015.6S
S GREEN BAY BUOY 2300   58     340/ 14/ 17 1016.4
N MID LAKE BUOY  2250   56 56  330/ 14/ 16 1015.8R   2/ 4
NORTHPORT PIER   2240   58     340/ 11/ 14 1015.9S
KEWAUNEE LAKESHO 2254   58     320/  5/ 11 1015.7R
SHEBOYGAN LAKESH 2300   58     320/ 17/ 20 1016.5R
PORT WASHINGTON  2230   64     300/ 10/ 20 1017.3S
ATWATER BUOY     2209   61 56  300/ 14/ 19 1016.6F
MILWAUKEE LAKESH 2300   62     310/ 14/ 21   N/A
S MID LAKE BUOY  2250   60 61  340/ 16/ 17 1016.5F   3/ 5
KENOSHA   LAKESH 2300   63     310/ 18/ 22 1016.6
$$

TC  - TEMPERATURE IN CELSIUS
VSB - VISIBILITY IN STATUTE MILES
WCI - WIND CHILL INDEX
HX  - HEAT INDEX





USA.gov is the U.S. government's official web portal to all federal, state and local government web resources and services.